• In Belgien
  • Länderverzeichnis
  • Für 7 Tage
  • Wassertemperatur
  • Satellitenkarten
  • Wetterkarte
  • Widgets
  • user-avatar
    Anmelden

    Stündliche Wetter Annaba

    Heute, 18 Oktober, Mittwoch

    Zeit Temperatur Niederschläge Wind Luftdruck Luftfeuchtigkeit
    00:00 +23°C° 0 mm 1 m/S 764 mmHg 58%
    01:00 +21°C° 0 mm 2 m/S 764 mmHg 55%
    02:00 +22°C° 0 mm 1 m/S 763 mmHg 53%
    03:00 +22°C° 0 mm 1 m/S 763 mmHg 52%
    04:00 +22°C° 0 mm 1 m/S 762 mmHg 50%
    05:00 +22°C° 0 mm 1 m/S 762 mmHg 50%
    06:00 +22°C° 0 mm 1 m/S 762 mmHg 49%
    07:00 +22°C° 0 mm 1 m/S 762 mmHg 50%
    08:00 +24°C° 0 mm 1 m/S 762 mmHg 45%
    09:00 +26°C° 0 mm 1 m/S 762 mmHg 40%
    10:00 +28°C° 0 mm 1 m/S 762 mmHg 35%
    11:00 +29°C° 0 mm 1 m/S 761 mmHg 33%
    12:00 +30°C° 0 mm 1 m/S 761 mmHg 30%
    13:00 +31°C° 0 mm 2 m/S 761 mmHg 28%
    14:00 +31°C° 0 mm 2 m/S 760 mmHg 28%
    15:00 +31°C° 0 mm 3 m/S 760 mmHg 29%
    16:00 +30°C° 0 mm 3 m/S 759 mmHg 30%
    17:00 +29°C° 0 mm 3 m/S 759 mmHg 34%
    18:00 +27°C° 0 mm 3 m/S 759 mmHg 39%
    19:00 +25°C° 0 mm 3 m/S 759 mmHg 43%
    20:00 +25°C° 0 mm 3 m/S 759 mmHg 43%
    21:00 +25°C° 0 mm 3 m/S 759 mmHg 43%
    22:00 +24°C° 0 mm 3 m/S 760 mmHg 43%
    23:00 +24°C° 0 mm 3 m/S 759 mmHg 41%

    Morgen, 19 Oktober, Donnerstag

    Zeit Temperatur Niederschläge Wind Luftdruck Luftfeuchtigkeit
    00:00 +24°C° 0 mm 3 m/S 759 mmHg 39%
    01:00 +24°C° 0 mm 3 m/S 759 mmHg 37%
    02:00 +24°C° 0 mm 3 m/S 759 mmHg 38%
    03:00 +22°C° 0 mm 3 m/S 758 mmHg 39%
    04:00 +22°C° 0 mm 3 m/S 758 mmHg 39%
    05:00 +22°C° 0 mm 3 m/S 758 mmHg 42%
    06:00 +21°C° 0 mm 3 m/S 758 mmHg 45%
    07:00 +21°C° 0 mm 3 m/S 758 mmHg 47%
    08:00 +24°C° 0 mm 3 m/S 759 mmHg 43%
    09:00 +26°C° 0 mm 3 m/S 759 mmHg 39%
    10:00 +28°C° 0 mm 2 m/S 759 mmHg 35%
    11:00 +29°C° 0 mm 2 m/S 758 mmHg 33%
    12:00 +30°C° 0 mm 2 m/S 758 mmHg 31%
    13:00 +31°C° 0 mm 2 m/S 758 mmHg 30%
    14:00 +31°C° 0 mm 3 m/S 757 mmHg 31%
    15:00 +31°C° 0 mm 3 m/S 757 mmHg 33%
    16:00 +30°C° 0 mm 4 m/S 756 mmHg 34%
    17:00 +29°C° 0 mm 4 m/S 756 mmHg 39%
    18:00 +27°C° 0 mm 4 m/S 756 mmHg 44%
    19:00 +26°C° 0 mm 3 m/S 756 mmHg 48%
    20:00 +26°C° 0 mm 3 m/S 757 mmHg 49%
    21:00 +25°C° 0 mm 3 m/S 757 mmHg 49%
    22:00 +25°C° 0 mm 3 m/S 757 mmHg 50%
    23:00 +25°C° 0,2 mm 4 m/S 757 mmHg 53%

    übermorgen, 20 Oktober, Freitag

    Zeit Temperatur Niederschläge Wind Luftdruck Luftfeuchtigkeit
    00:00 +23°C° 0,2 mm 4 m/S 757 mmHg 57%
    01:00 +22°C° 0,2 mm 5 m/S 757 mmHg 61%
    02:00 +22°C° 1 mm 5 m/S 757 mmHg 66%
    03:00 +21°C° 1 mm 4 m/S 758 mmHg 71%
    04:00 +20°C° 1 mm 4 m/S 758 mmHg 76%
    05:00 +20°C° 1,2 mm 3 m/S 758 mmHg 77%
    06:00 +19°C° 1,2 mm 3 m/S 758 mmHg 78%
    07:00 +19°C° 1,2 mm 2 m/S 758 mmHg 79%
    08:00 +20°C° 0,4 mm 2 m/S 759 mmHg 74%
    09:00 +20°C° 0,4 mm 2 m/S 759 mmHg 70%
    10:00 +21°C° 0,4 mm 2 m/S 760 mmHg 65%
    11:00 +23°C° 0,2 mm 2 m/S 760 mmHg 62%
    12:00 +22°C° 0,2 mm 3 m/S 760 mmHg 59%
    13:00 +24°C° 0,2 mm 3 m/S 759 mmHg 56%
    14:00 +22°C° 0,2 mm 3 m/S 759 mmHg 59%
    15:00 +22°C° 0,2 mm 4 m/S 759 mmHg 61%
    16:00 +22°C° 0,2 mm 4 m/S 759 mmHg 64%
    17:00 +21°C° 0,2 mm 4 m/S 760 mmHg 69%
    18:00 +20°C° 0,2 mm 3 m/S 760 mmHg 74%
    19:00 +19°C° 0,2 mm 2 m/S 761 mmHg 79%
    20:00 +19°C° 0,2 mm 2 m/S 761 mmHg 80%
    21:00 +19°C° 0,2 mm 2 m/S 762 mmHg 80%
    22:00 +20°C° 0,2 mm 1 m/S 763 mmHg 81%
    23:00 +19°C° 0,1 mm 2 m/S 763 mmHg 81%

    21 Oktober, Samstag

    Zeit Temperatur Niederschläge Wind Luftdruck Luftfeuchtigkeit
    00:00 +19°C° 0,1 mm 2 m/S 763 mmHg 82%
    01:00 +19°C° 0,1 mm 2 m/S 763 mmHg 82%
    02:00 +19°C° 0,1 mm 2 m/S 763 mmHg 82%
    03:00 +19°C° 0,1 mm 2 m/S 763 mmHg 82%
    04:00 +19°C° 0,1 mm 2 m/S 763 mmHg 82%
    05:00 +19°C° 0 mm 2 m/S 763 mmHg 83%
    06:00 +19°C° 0 mm 2 m/S 763 mmHg 83%
    07:00 +19°C° 0 mm 2 m/S 763 mmHg 83%
    08:00 +20°C° 0 mm 2 m/S 764 mmHg 79%
    09:00 +20°C° 0 mm 2 m/S 764 mmHg 75%
    10:00 +21°C° 0 mm 2 m/S 765 mmHg 71%
    11:00 +23°C° 0 mm 2 m/S 764 mmHg 68%
    12:00 +24°C° 0 mm 3 m/S 764 mmHg 65%
    13:00 +24°C° 0 mm 3 m/S 764 mmHg 62%
    14:00 +24°C° 0 mm 3 m/S 764 mmHg 62%
    15:00 +24°C° 0 mm 2 m/S 764 mmHg 61%
    16:00 +25°C° 0 mm 2 m/S 764 mmHg 61%
    17:00 +24°C° 0 mm 2 m/S 764 mmHg 66%
    18:00 +23°C° 0 mm 2 m/S 764 mmHg 70%
    19:00 +21°C° 0 mm 1 m/S 765 mmHg 75%
    20:00 +21°C° 0 mm 1 m/S 765 mmHg 77%
    21:00 +21°C° 0 mm 1 m/S 765 mmHg 79%
    22:00 +20°C° 0 mm 1 m/S 765 mmHg 80%
    23:00 +20°C° 0 mm 1 m/S 765 mmHg 81%

    22 Oktober, Sonntag

    Zeit Temperatur Niederschläge Wind Luftdruck Luftfeuchtigkeit
    00:00 +19°C° 0 mm 2 m/S 765 mmHg 82%
    01:00 +19°C° 0 mm 2 m/S 765 mmHg 82%
    02:00 +19°C° 0 mm 2 m/S 765 mmHg 83%
    03:00 +19°C° 0 mm 2 m/S 765 mmHg 83%
    04:00 +18°C° 0 mm 2 m/S 764 mmHg 84%
    05:00 +18°C° 0 mm 2 m/S 764 mmHg 84%
    06:00 +18°C° 0 mm 2 m/S 765 mmHg 84%
    07:00 +18°C° 0 mm 3 m/S 765 mmHg 83%
    08:00 +20°C° 0 mm 3 m/S 765 mmHg 75%
    09:00 +22°C° 0 mm 3 m/S 765 mmHg 67%
    10:00 +25°C° 0 mm 3 m/S 765 mmHg 59%
    11:00 +25°C° 0,1 mm 3 m/S 765 mmHg 57%
    12:00 +26°C° 0,1 mm 4 m/S 764 mmHg 54%
    13:00 +27°C° 0,1 mm 4 m/S 764 mmHg 52%
    14:00 +26°C° 0,4 mm 4 m/S 764 mmHg 57%
    15:00 +26°C° 0,4 mm 5 m/S 763 mmHg 61%
    16:00 +25°C° 0,4 mm 5 m/S 763 mmHg 65%
    17:00 +23°C° 0,5 mm 5 m/S 764 mmHg 72%
    18:00 +22°C° 0,5 mm 4 m/S 764 mmHg 78%
    19:00 +21°C° 0,5 mm 4 m/S 764 mmHg 85%
    20:00 +20°C° 0,1 mm 4 m/S 765 mmHg 84%
    21:00 +20°C° 0,1 mm 4 m/S 765 mmHg 84%
    22:00 +20°C° 0,1 mm 4 m/S 765 mmHg 84%
    23:00 +20°C° 0,2 mm 4 m/S 765 mmHg 84%

    23 Oktober, Montag

    Zeit Temperatur Niederschläge Wind Luftdruck Luftfeuchtigkeit
    00:00 +20°C° 0,2 mm 4 m/S 765 mmHg 84%
    01:00 +20°C° 0,2 mm 3 m/S 764 mmHg 84%
    02:00 +19°C° 0,3 mm 4 m/S 764 mmHg 84%
    03:00 +19°C° 0,3 mm 4 m/S 764 mmHg 85%
    04:00 +19°C° 0,3 mm 5 m/S 764 mmHg 85%
    05:00 +19°C° 0,2 mm 5 m/S 764 mmHg 84%
    06:00 +19°C° 0,2 mm 5 m/S 763 mmHg 83%
    07:00 +19°C° 0,2 mm 5 m/S 763 mmHg 82%
    08:00 +20°C° 0,1 mm 5 m/S 764 mmHg 77%
    09:00 +20°C° 0,1 mm 6 m/S 764 mmHg 72%
    10:00 +21°C° 0,1 mm 6 m/S 764 mmHg 67%
    11:00 +21°C° 0,2 mm 7 m/S 764 mmHg 66%
    12:00 +22°C° 0,2 mm 7 m/S 763 mmHg 65%
    13:00 +22°C° 0,2 mm 8 m/S 763 mmHg 63%
    14:00 +22°C° 0,1 mm 8 m/S 763 mmHg 65%
    15:00 +22°C° 0,1 mm 8 m/S 762 mmHg 66%
    16:00 +21°C° 0,1 mm 8 m/S 762 mmHg 67%
    17:00 +21°C° 0 mm 8 m/S 762 mmHg 72%
    18:00 +20°C° 0 mm 7 m/S 763 mmHg 76%
    19:00 +18°C° 0 mm 7 m/S 763 mmHg 80%
    20:00 +18°C° 0 mm 7 m/S 763 mmHg 80%
    21:00 +18°C° 0 mm 7 m/S 763 mmHg 80%
    22:00 +19°C° 0 mm 6 m/S 763 mmHg 80%
    23:00 +17°C° 0 mm 6 m/S 763 mmHg 81%
    Mehr zeigen